Location: Newark
(46.2667°N, 9.8667°E)
Time: 02:26:56
(UTC+00:00)

X-37B - Visible Passes

Search period start: 22 September 2020 00:00
Search period end: 02 October 2020 00:00
Orbit: 386 x 387 km, 45.0° (Epoch: 18 September)

Date Brightness Start Highest point End Pass type
(mag) Time Alt. Az. Time Alt. Az. Time Alt. Az.
22 Sep 2.9 02:46:19 21° ESE 02:46:19 21° ESE 02:47:31 10° ESE visible
22 Sep 1.9 04:18:37 14° WSW 04:20:42 25° SSW 04:23:23 10° SSE visible
23 Sep 1.8 03:23:01 31° SSE 03:23:01 31° SSE 03:25:13 10° SE visible
24 Sep 2.4 03:59:50 16° SSW 03:59:57 16° SSW 04:02:02 10° S visible
01 Oct 3.2 18:34:00 10° S 18:34:08 11° S 18:34:08 11° S visible
